STARLINK-3898, 52458

Orbit data source: Space-Track

STARLINK-3898, 52458 is a payload satellite owned by SpaceX/Seattle (US) in LEO that was launched on Fri, 06 May 2022 UTC via an FALCON 9 launch vehicle from the Air Force Eastern Test Range (AFETR). Payload-class satellites include a variety of spacecraft equipped with specific instruments for various scientific and technological missions. These include communications satellites like Starlink; space stations such as the ISS; scientific satellites like the Hubble; Earth observation satellites from companies like Planet Labs, Umbra, and HawkEye 360; GPS; miniature CubeSats for education and research; and military/defense satellites.

Loading next visibility...
Identifier
52458, 2022-049H
Orbit
LEO
Country
Flag of USUS
Related business
Manufacturer
SpaceX/Seattle
Mission
Operational Commercial Communications
Bus & Motor
STARLINK, Unknown motor
Mass
297 kg wet, ~220 kg dry
Launch date (UTC)
2022-05-06 (4 years ago)
Launch vehicle
FALCON 9
Launch site
Air Force Eastern Test Range (AFETR)
Object type
Payload
Rocket body
Debris
Shape & HBR
Box + 1 Pan, 10.1 m
Radar Cross Section
13.562 m², Large (>1 m²)

Expand to show TLE details & history
Last TLE update: 8 hours ago

TLE from 8 hours ago
0 STARLINK-3898
1 52458U 22049H   26194.08326823  .00000577  00000-0  54352-4 0  9997
2 52458  53.1599 225.9541 0000846  82.1299 277.9789 15.08839218231049
Epoch: 2026-07-13T01:59Z
TLE epoch observation values (Epoch: 2026-07-13T01:59:54.375Z)
Latitude
0.00005°
Longitude
-94.9953°
Altitude
540.556 km
Speed
7.593 km/s
True Right ascension
15h 03m 48s
True Declination
0° 00' 00"
Sunlit
Object was in daylight at epoch
Visualization orbit readout
Latitude
Unknown
Longitude
Unknown
Altitude
Unknown
Speed
Unknown
Apparent Right ascension
Unknown
Apparent Declination
Unknown
Sunlit
N/A
Visualization observer readout
Local Sidereal Time
22:42:13
Azimuth
Unknown
Elevation
Unknown
Doppler factor
Unknown
Orbital elements
Apogee altitude
540.585 km
Perigee altitude
539.415 km
Semi-major axis
6,918.137 km
Eccentricity
0.00008
Inclination
53.1599°
RAAN
225.9541°
Arg. of periapsis
82.1299°
True anomaly
277.9693°
Mean anomaly
277.9789°
Eccentric anomaly
277.9741°
Mean motion
3.77189 °/min
Orbital period
95.44 mins
BSTAR
0.000054352
Loading maneuver chart data...
Computing Atmospheric mass density...
Loading historical data...
Loading historical data...
Loading historical data...
Loading historical data...
Loading historical data...
Loading historical data...
Loading historical data...

Documentation

Showing up to 5 results
|